Location: McFarlands Corners
(41.4117°N, 81.3382°W)
Time: 18:04:11
(UTC+00:00)

Vanguard 1 Rocket - Pass Details

Date: 20 February 2026
Orbit: 653 x 4214 km, 34.3° (Epoch: 8 March)

Event Time Altitude Azimuth Distance (km) Brightness Sun altitude
Rises 18:48:00 0° 245° (WSW) 4,058 11.3 35.5°
Reaches altitude 10° 18:50:16 10° 241° (WSW) 3,376 11.1 35.4°
Maximum altitude 18:58:55 58° 164° (SSE) 2,288 10.5 34.7°
Drops below altitude 10° 19:15:58 10° 92° (E) 6,301 11.5 33.3°
Sets 19:22:01 0° 90° (E) 7,786 11.9 32.7°
